TimeAKDT,TemperatureF,Dew PointF,Humidity,Sea Level PressureIn,VisibilityMPH,Wind Direction,Wind SpeedMPH,Gust SpeedMPH,PrecipitationIn,Events,Conditions,WindDirDegrees,DateUTC
12:16 AM,30.2,8.6,40,29.86,10.0,East,16.1,20.7,N/A,,Clear,80,2012-10-28 08:16:00
12:36 AM,30.2,8.6,40,29.86,10.0,East,15.0,21.9,N/A,,Clear,80,2012-10-28 08:36:00
12:56 AM,30.2,6.8,37,29.86,10.0,ENE,15.0,20.7,N/A,,Clear,70,2012-10-28 08:56:00
1:16 AM,30.2,8.6,40,29.86,10.0,East,13.8,20.7,N/A,,Clear,80,2012-10-28 09:16:00
1:36 AM,30.2,6.8,37,29.86,10.0,East,15.0,20.7,N/A,,Clear,80,2012-10-28 09:36:00
1:56 AM,30.2,8.6,40,29.86,10.0,East,15.0,20.7,N/A,,Clear,80,2012-10-28 09:56:00
2:16 AM,30.2,8.6,40,29.87,10.0,East,13.8,19.6,N/A,,Clear,80,2012-10-28 10:16:00
2:36 AM,30.2,6.8,37,29.87,10.0,East,13.8,19.6,N/A,,Clear,80,2012-10-28 10:36:00
2:56 AM,30.2,6.8,37,29.87,10.0,ENE,12.7,18.4,N/A,,Clear,70,2012-10-28 10:56:00
3:16 AM,30.2,8.6,40,29.87,10.0,East,13.8,19.6,N/A,,Clear,90,2012-10-28 11:16:00
3:36 AM,30.2,6.8,37,29.86,10.0,East,16.1,21.9,N/A,,Clear,80,2012-10-28 11:36:00
3:56 AM,30.2,6.8,37,29.87,10.0,East,12.7,19.6,N/A,,Clear,80,2012-10-28 11:56:00
4:16 AM,28.4,6.8,40,29.86,10.0,East,13.8,20.7,N/A,,Clear,80,2012-10-28 12:16:00
4:36 AM,28.4,6.8,40,29.87,10.0,East,13.8,20.7,N/A,,Clear,80,2012-10-28 12:36:00
4:56 AM,28.4,6.8,40,29.87,10.0,East,12.7,19.6,N/A,,Clear,80,2012-10-28 12:56:00
5:16 AM,28.4,6.8,40,29.87,10.0,East,12.7,23.0,N/A,,Clear,90,2012-10-28 13:16:00
5:36 AM,28.4,6.8,40,29.87,10.0,East,13.8,19.6,N/A,,Clear,80,2012-10-28 13:36:00
5:56 AM,28.4,6.8,40,29.88,10.0,East,11.5,-,N/A,,Clear,80,2012-10-28 13:56:00
6:16 AM,28.4,6.8,40,29.87,10.0,ENE,15.0,20.7,N/A,,Clear,70,2012-10-28 14:16:00
6:36 AM,28.4,6.8,40,29.88,10.0,East,13.8,24.2,N/A,,Clear,80,2012-10-28 14:36:00
6:56 AM,28.4,6.8,40,29.88,10.0,East,13.8,18.4,N/A,,Clear,80,2012-10-28 14:56:00
7:16 AM,28.4,6.8,40,29.88,10.0,East,13.8,19.6,N/A,,Clear,80,2012-10-28 15:16:00
7:36 AM,28.4,6.8,40,29.88,10.0,East,11.5,21.9,N/A,,Clear,80,2012-10-28 15:36:00
7:56 AM,28.4,6.8,40,29.88,10.0,East,13.8,-,N/A,,Partly Cloudy,90,2012-10-28 15:56:00
8:16 AM,28.4,6.8,40,29.89,10.0,East,13.8,20.7,N/A,,Partly Cloudy,90,2012-10-28 16:16:00
8:36 AM,28.4,6.8,40,29.89,10.0,East,12.7,-,N/A,,Partly Cloudy,80,2012-10-28 16:36:00
8:56 AM,28.4,6.8,40,29.90,10.0,East,10.4,19.6,N/A,,Partly Cloudy,80,2012-10-28 16:56:00
9:16 AM,28.4,6.8,40,29.90,10.0,East,12.7,18.4,N/A,,Partly Cloudy,80,2012-10-28 17:16:00
9:36 AM,30.2,6.8,37,29.90,10.0,East,10.4,-,N/A,,Partly Cloudy,80,2012-10-28 17:36:00
9:56 AM,30.2,6.8,37,29.90,10.0,East,11.5,17.3,N/A,,Partly Cloudy,90,2012-10-28 17:56:00
10:16 AM,30.2,6.8,37,29.90,10.0,East,11.5,-,N/A,,Partly Cloudy,90,2012-10-28 18:16:00
10:36 AM,30.2,6.8,37,29.90,10.0,East,13.8,18.4,N/A,,Partly Cloudy,90,2012-10-28 18:36:00
10:56 AM,30.2,6.8,37,29.90,10.0,East,12.7,-,N/A,,Partly Cloudy,80,2012-10-28 18:56:00
11:16 AM,32.0,6.8,35,29.91,10.0,East,10.4,-,N/A,,Partly Cloudy,100,2012-10-28 19:16:00
11:36 AM,30.2,6.8,37,29.91,10.0,East,12.7,-,N/A,,Partly Cloudy,100,2012-10-28 19:36:00
11:56 AM,33.8,8.6,35,29.91,10.0,East,10.4,-,N/A,,Partly Cloudy,90,2012-10-28 19:56:00
12:16 PM,33.8,8.6,35,29.91,10.0,East,10.4,-,N/A,,Partly Cloudy,80,2012-10-28 20:16:00
12:36 PM,33.8,8.6,35,29.90,10.0,ENE,9.2,19.6,N/A,,Partly Cloudy,70,2012-10-28 20:36:00
12:56 PM,33.8,8.6,35,29.90,10.0,ESE,10.4,-,N/A,,Partly Cloudy,110,2012-10-28 20:56:00
1:16 PM,33.8,6.8,32,29.90,10.0,ESE,8.1,-,N/A,,Partly Cloudy,120,2012-10-28 21:16:00
1:36 PM,33.8,8.6,35,29.89,10.0,East,11.5,-,N/A,,Partly Cloudy,100,2012-10-28 21:36:00
1:56 PM,33.8,8.6,35,29.89,10.0,East,13.8,-,N/A,,Partly Cloudy,90,2012-10-28 21:56:00
2:16 PM,33.8,10.4,38,29.89,10.0,East,11.5,-,N/A,,Partly Cloudy,90,2012-10-28 22:16:00
2:36 PM,33.8,10.4,38,29.88,10.0,East,11.5,-,N/A,,Partly Cloudy,90,2012-10-28 22:36:00
2:56 PM,33.8,8.6,35,29.89,10.0,East,6.9,-,N/A,,Partly Cloudy,80,2012-10-28 22:56:00
3:16 PM,33.8,8.6,35,29.89,10.0,East,9.2,-,N/A,,Partly Cloudy,100,2012-10-28 23:16:00
3:36 PM,33.8,8.6,35,29.88,10.0,East,10.4,-,N/A,,Partly Cloudy,100,2012-10-28 23:36:00
3:56 PM,33.8,10.4,38,29.88,10.0,East,11.5,-,N/A,,Partly Cloudy,90,2012-10-28 23:56:00
4:16 PM,33.8,10.4,38,29.88,10.0,East,10.4,16.1,N/A,,Partly Cloudy,90,2012-10-29 00:16:00
4:36 PM,32.0,8.6,38,29.88,10.0,East,11.5,-,N/A,,Partly Cloudy,90,2012-10-29 00:36:00
4:56 PM,30.2,8.6,40,29.88,10.0,East,10.4,-,N/A,,Partly Cloudy,80,2012-10-29 00:56:00
5:16 PM,30.2,8.6,40,29.88,10.0,East,10.4,-,N/A,,Partly Cloudy,80,2012-10-29 01:16:00
5:36 PM,30.2,8.6,40,29.88,10.0,East,11.5,-,N/A,,Partly Cloudy,80,2012-10-29 01:36:00
5:56 PM,30.2,8.6,40,29.88,10.0,ENE,12.7,19.6,N/A,,Partly Cloudy,70,2012-10-29 01:56:00
6:16 PM,30.2,8.6,40,29.88,10.0,ENE,12.7,20.7,N/A,,Partly Cloudy,70,2012-10-29 02:16:00
6:36 PM,30.2,8.6,40,29.88,10.0,ENE,15.0,19.6,N/A,,Partly Cloudy,70,2012-10-29 02:36:00
6:56 PM,30.2,8.6,40,29.87,10.0,East,15.0,20.7,N/A,,Partly Cloudy,80,2012-10-29 02:56:00
7:16 PM,30.2,8.6,40,29.88,10.0,East,11.5,17.3,N/A,,Partly Cloudy,80,2012-10-29 03:16:00
7:36 PM,30.2,8.6,40,29.88,10.0,ENE,10.4,18.4,N/A,,Partly Cloudy,70,2012-10-29 03:36:00
7:56 PM,30.2,8.6,40,29.87,10.0,East,15.0,26.5,N/A,,Mostly Cloudy,80,2012-10-29 03:56:00
8:16 PM,30.2,8.6,40,29.87,10.0,East,13.8,24.2,N/A,,Mostly Cloudy,80,2012-10-29 04:16:00
8:36 PM,28.4,8.6,43,29.87,10.0,ENE,15.0,24.2,N/A,,Mostly Cloudy,70,2012-10-29 04:36:00
8:56 PM,28.4,6.8,40,29.87,10.0,East,15.0,20.7,N/A,,Clear,80,2012-10-29 04:56:00
9:16 PM,28.4,6.8,40,29.87,10.0,East,11.5,20.7,N/A,,Clear,80,2012-10-29 05:16:00
9:36 PM,28.4,6.8,40,29.87,10.0,ENE,11.5,21.9,N/A,,Clear,60,2012-10-29 05:36:00
9:56 PM,28.4,6.8,40,29.86,10.0,ENE,13.8,21.9,N/A,,Clear,70,2012-10-29 05:56:00
10:16 PM,28.4,6.8,40,29.86,10.0,East,12.7,-,N/A,,Clear,80,2012-10-29 06:16:00
10:36 PM,28.4,6.8,40,29.86,10.0,East,11.5,-,N/A,,Clear,80,2012-10-29 06:36:00
10:56 PM,28.4,6.8,40,29.86,10.0,East,11.5,-,N/A,,Clear,80,2012-10-29 06:56:00
11:16 PM,28.4,6.8,40,29.85,10.0,ENE,12.7,-,N/A,,Clear,60,2012-10-29 07:16:00
11:36 PM,28.4,6.8,40,29.85,10.0,ENE,11.5,20.7,N/A,,Clear,70,2012-10-29 07:36:00
11:56 PM,28.4,6.8,40,29.85,10.0,East,12.7,18.4,N/A,,Clear,80,2012-10-29 07:56:00